,,,PA_Meas_PMT16A,,PR_Meas_QMR101_102,,RH_Meas_QMH101,,SR_Meas_QMS101,,TA_Meas_QMH101,,GenWind,,GenWind,
date,time,status,PA,status,PR,status,RH,status,SR,status,TA,status,DirAvg,status,SpdAvg,
2009-06-09, 00:00:04,VALID,1012.11,VALID,0,VALID,89.4196,VALID,0,VALID,25.0759,VALID,33,VALID,0,
2009-06-09, 00:01:04,VALID,1012.09,VALID,0,VALID,89.4272,VALID,0,VALID,25.0778,VALID,33,VALID,0,
2009-06-09, 00:02:04,VALID,1012.07,VALID,0,VALID,89.4196,VALID,0,VALID,25.0778,VALID,33,VALID,0,
2009-06-09, 00:03:04,VALID,1012.05,VALID,0,VALID,89.4653,VALID,0,VALID,25.0778,VALID,33,VALID,0.222656,
2009-06-09, 00:04:04,VALID,1012.02,VALID,0,VALID,89.4577,VALID,0,VALID,25.0583,VALID,40,VALID,0.391016,
2009-06-09, 00:05:04,VALID,1012.04,VALID,0,VALID,89.4882,VALID,0,VALID,25.0369,VALID,71,VALID,0.6875,
2009-06-09, 00:06:04,VALID,1011.96,VALID,0,VALID,89.5416,VALID,0,VALID,25.0369,VALID,75,VALID,0.500781,
2009-06-09, 00:07:04,VALID,1011.97,VALID,0,VALID,89.5645,VALID,0,VALID,25.0388,VALID,100,VALID,0.396094,
2009-06-09, 00:08:04,VALID,1011.97,VALID,0,VALID,89.5645,VALID,0,VALID,25.0369,VALID,100,VALID,0.369922,
2009-06-09, 00:09:04,VALID,1011.96,VALID,0,VALID,89.534,VALID,0,VALID,25.0369,VALID,100,VALID,0,
2009-06-09, 00:10:04,VALID,1011.95,VALID,0,VALID,89.534,VALID,0,VALID,25.0369,VALID,100,VALID,0,
2009-06-09, 00:11:04,VALID,1011.95,VALID,0,VALID,89.5263,VALID,0,VALID,25.0564,VALID,100,VALID,0,
2009-06-09, 00:12:04,VALID,1011.95,VALID,0,VALID,89.5416,VALID,0,VALID,25.0778,VALID,100,VALID,0,
2009-06-09, 00:13:04,VALID,1011.91,VALID,0,VALID,89.534,VALID,0,VALID,25.0564,VALID,100,VALID,0,
2009-06-09, 00:14:04,VALID,1011.9,VALID,0,VALID,89.5416,VALID,0,VALID,25.0564,VALID,100,VALID,0,
2009-06-09, 00:15:04,VALID,1011.89,VALID,0,VALID,89.4958,VALID,0,VALID,25.0778,VALID,100,VALID,0,
2009-06-09, 00:16:04,VALID,1011.89,VALID,0,VALID,89.5035,VALID,0,VALID,25.0778,VALID,97,VALID,0,
2009-06-09, 00:17:04,VALID,1011.89,VALID,0,VALID,89.534,VALID,0,VALID,25.0759,VALID,91,VALID,0,
2009-06-09, 00:18:04,VALID,1011.86,VALID,0,VALID,89.5111,VALID,0,VALID,25.0973,VALID,54,VALID,0.438281,
2009-06-09, 00:19:04,VALID,1011.89,VALID,0,VALID,89.5111,VALID,0,VALID,25.0954,VALID,54,VALID,0.536328,
2009-06-09, 00:20:04,VALID,1011.87,VALID,0,VALID,89.4882,VALID,0,VALID,25.1167,VALID,54,VALID,0.310547,
2009-06-09, 00:21:04,VALID,1011.9,VALID,0,VALID,89.4577,VALID,0,VALID,25.0973,VALID,54,VALID,0,
2009-06-09, 00:22:04,VALID,1011.88,VALID,0,VALID,89.4043,VALID,0,VALID,25.0778,VALID,54,VALID,0,
2009-06-09, 00:23:04,VALID,1011.86,VALID,0,VALID,89.412,VALID,0,VALID,25.0174,VALID,54,VALID,0,
2009-06-09, 00:24:04,VALID,1011.86,VALID,0,VALID,89.4348,VALID,0,VALID,25.0583,VALID,54,VALID,0,
2009-06-09, 00:25:04,VALID,1011.81,VALID,0,VALID,89.4577,VALID,0,VALID,25.0193,VALID,54,VALID,0,
2009-06-09, 00:26:04,VALID,1011.82,VALID,0,VALID,89.5111,VALID,0,VALID,24.9979,VALID,84,VALID,0.454297,
2009-06-09, 00:27:04,VALID,1011.79,VALID,0,VALID,89.5568,VALID,0,VALID,24.9998,VALID,84,VALID,0.51875,
2009-06-09, 00:28:04,VALID,1011.8,VALID,0,VALID,89.6026,VALID,0,VALID,25.0193,VALID,84,VALID,0.408203,
2009-06-09, 00:29:04,VALID,1011.78,VALID,0,VALID,89.6331,VALID,0,VALID,24.9998,VALID,94,VALID,0.831641,
2009-06-09, 00:30:04,VALID,1011.77,VALID,0,VALID,89.6255,VALID,0,VALID,24.9784,VALID,93,VALID,1.07539,
2009-06-09, 00:31:04,VALID,1011.76,VALID,0,VALID,89.6789,VALID,0,VALID,24.9979,VALID,88,VALID,1.08164,
2009-06-09, 00:32:04,VALID,1011.72,VALID,0,VALID,89.7017,VALID,0,VALID,25.0369,VALID,88,VALID,1.46211,
2009-06-09, 00:33:04,VALID,1011.72,VALID,0,VALID,89.6712,VALID,0,VALID,25.0583,VALID,83,VALID,1.275,
2009-06-09, 00:34:04,VALID,1011.68,VALID,0,VALID,89.6179,VALID,0,VALID,25.0388,VALID,93,VALID,1.10938,
2009-06-09, 00:35:04,VALID,1011.64,VALID,0,VALID,89.5797,VALID,0,VALID,25.0174,VALID,81,VALID,0.598437,
2009-06-09, 00:36:04,VALID,1011.65,VALID,0,VALID,89.5645,VALID,0.105969,VALID,25.0174,VALID,93,VALID,0.467969,
2009-06-09, 00:37:04,VALID,1011.63,VALID,0,VALID,89.5568,VALID,0,VALID,25.0193,VALID,82,VALID,0.551562,
2009-06-09, 00:38:04,VALID,1011.65,VALID,0,VALID,89.5492,VALID,0,VALID,24.9784,VALID,90,VALID,0.680469,
2009-06-09, 00:39:04,VALID,1011.62,VALID,0,VALID,89.5797,VALID,0,VALID,25.0193,VALID,87,VALID,0.564453,
2009-06-09, 00:40:04,VALID,1011.62,VALID,0,VALID,89.6026,VALID,0,VALID,24.9998,VALID,72,VALID,0.594922,
2009-06-09, 00:41:04,VALID,1011.65,VALID,0,VALID,89.6026,VALID,0,VALID,24.9998,VALID,65,VALID,0.463672,
2009-06-09, 00:42:04,VALID,1011.6,VALID,0,VALID,89.5873,VALID,0,VALID,24.9998,VALID,65,VALID,0,
2009-06-09, 00:43:04,VALID,1011.6,VALID,0,VALID,89.5873,VALID,0,VALID,24.9998,VALID,65,VALID,0.0917969,
2009-06-09, 00:44:04,VALID,1011.6,VALID,0,VALID,89.6102,VALID,0,VALID,24.9803,VALID,79,VALID,0.743359,
2009-06-09, 00:45:04,VALID,1011.62,VALID,0,VALID,89.6026,VALID,0,VALID,24.9803,VALID,79,VALID,0.706641,
2009-06-09, 00:46:04,VALID,1011.59,VALID,0,VALID,89.5797,VALID,0,VALID,24.9413,VALID,105,VALID,0.411719,
2009-06-09, 00:47:04,VALID,1011.59,VALID,0,VALID,89.5568,VALID,0,VALID,24.9004,VALID,105,VALID,0.375,
2009-06-09, 00:48:04,VALID,1011.59,VALID,0,VALID,89.5416,VALID,0,VALID,24.9023,VALID,105,VALID,0.812891,
2009-06-09, 00:49:04,VALID,1011.57,VALID,0,VALID,89.5797,VALID,0,VALID,24.9023,VALID,113,VALID,0.425,
2009-06-09, 00:50:04,VALID,1011.58,VALID,0,VALID,89.6026,VALID,0,VALID,24.9004,VALID,83,VALID,0.711719,
2009-06-09, 00:51:04,VALID,1011.59,VALID,0,VALID,89.6407,VALID,0,VALID,24.9218,VALID,101,VALID,1.2043,
2009-06-09, 00:52:04,VALID,1011.59,VALID,0,VALID,89.6789,VALID,0,VALID,24.9413,VALID,96,VALID,0.886328,
2009-06-09, 00:53:04,VALID,1011.54,VALID,0,VALID,89.656,VALID,0,VALID,24.9413,VALID,99,VALID,0.681641,
2009-06-09, 00:54:04,VALID,1011.55,VALID,0,VALID,89.6484,VALID,0.105969,VALID,24.9413,VALID,102,VALID,0.683203,
2009-06-09, 00:55:04,VALID,1011.51,VALID,0,VALID,89.6179,VALID,0,VALID,24.9218,VALID,96,VALID,1.17461,
2009-06-09, 00:56:04,VALID,1011.5,VALID,0,VALID,89.6255,VALID,0,VALID,24.9413,VALID,92,VALID,0.717188,
2009-06-09, 00:57:04,VALID,1011.49,VALID,0,VALID,89.6179,VALID,0,VALID,24.9199,VALID,92,VALID,0.627344,
2009-06-09, 00:58:04,VALID,1011.45,VALID,0,VALID,89.6102,VALID,0,VALID,24.9218,VALID,105,VALID,0.575,
2009-06-09, 00:59:04,VALID,1011.43,VALID,0,VALID,89.6102,VALID,0,VALID,24.9023,VALID,94,VALID,0.595703,
2009-06-09, 01:00:04,VALID,1011.4,VALID,0,VALID,89.6331,VALID,0,VALID,24.8809,VALID,94,VALID,0.135937,
2009-06-09, 01:01:04,VALID,1011.38,VALID,0,VALID,89.6102,VALID,0,VALID,24.9023,VALID,94,VALID,0.028125,
2009-06-09, 01:02:04,VALID,1011.38,VALID,0,VALID,89.6331,VALID,0,VALID,24.8828,VALID,73,VALID,0.375,
2009-06-09, 01:03:04,VALID,1011.38,VALID,0,VALID,89.6407,VALID,0,VALID,24.8828,VALID,73,VALID,0.523438,
2009-06-09, 01:04:04,VALID,1011.36,VALID,0,VALID,89.656,VALID,0,VALID,24.8633,VALID,55,VALID,0.708594,
2009-06-09, 01:05:04,VALID,1011.35,VALID,0,VALID,89.6941,VALID,0,VALID,24.8633,VALID,46,VALID,0.224609,
2009-06-09, 01:06:04,VALID,1011.36,VALID,0,VALID,89.7094,VALID,0,VALID,24.8438,VALID,42,VALID,0.491016,
2009-06-09, 01:07:04,VALID,1011.37,VALID,0,VALID,89.7551,VALID,0,VALID,24.8438,VALID,54,VALID,0.692578,
2009-06-09, 01:08:04,VALID,1011.37,VALID,0,VALID,89.7627,VALID,0,VALID,24.8225,VALID,64,VALID,0.295703,
2009-06-09, 01:09:04,VALID,1011.32,VALID,0,VALID,89.8009,VALID,0,VALID,24.803,VALID,64,VALID,0.143359,
2009-06-09, 01:10:04,VALID,1011.3,VALID,0,VALID,89.839,VALID,0,VALID,24.803,VALID,63,VALID,0,
2009-06-09, 01:11:04,VALID,1011.27,VALID,0,VALID,89.839,VALID,0,VALID,24.7835,VALID,63,VALID,0,
2009-06-09, 01:12:04,VALID,1011.25,VALID,0,VALID,89.8771,VALID,0,VALID,24.8049,VALID,62,VALID,0.460938,
2009-06-09, 01:13:04,VALID,1011.23,VALID,0,VALID,89.8771,VALID,0,VALID,24.803,VALID,44,VALID,0.508203,
2009-06-09, 01:14:04,VALID,1011.21,VALID,0,VALID,89.8848,VALID,0,VALID,24.8049,VALID,56,VALID,0.368359,
2009-06-09, 01:15:04,VALID,1011.2,VALID,0,VALID,89.8848,VALID,0.105969,VALID,24.7835,VALID,56,VALID,0.273438,
2009-06-09, 01:16:04,VALID,1011.2,VALID,0,VALID,89.9153,VALID,0.105969,VALID,24.7835,VALID,56,VALID,0,
2009-06-09, 01:17:04,VALID,1011.2,VALID,0,VALID,89.9229,VALID,0.105969,VALID,24.7835,VALID,56,VALID,0,
2009-06-09, 01:18:04,VALID,1011.19,VALID,0,VALID,89.9229,VALID,0,VALID,24.7835,VALID,56,VALID,0,
2009-06-09, 01:19:04,VALID,1011.2,VALID,0,VALID,89.9153,VALID,0,VALID,24.803,VALID,56,VALID,0,
2009-06-09, 01:20:04,VALID,1011.21,VALID,0,VALID,89.9305,VALID,0,VALID,24.764,VALID,56,VALID,0,
2009-06-09, 01:21:04,VALID,1011.19,VALID,0,VALID,89.9229,VALID,0,VALID,24.7835,VALID,61,VALID,0,
2009-06-09, 01:22:04,VALID,1011.2,VALID,0,VALID,89.9229,VALID,0,VALID,24.764,VALID,69,VALID,0,
2009-06-09, 01:23:04,VALID,1011.14,VALID,0,VALID,89.9153,VALID,0,VALID,24.7445,VALID,69,VALID,0,
2009-06-09, 01:24:04,VALID,1011.17,VALID,0,VALID,89.9076,VALID,0,VALID,24.725,VALID,69,VALID,0,
2009-06-09, 01:25:04,VALID,1011.17,VALID,0,VALID,89.9305,VALID,0,VALID,24.725,VALID,69,VALID,0,
2009-06-09, 01:26:04,VALID,1011.16,VALID,0,VALID,89.9458,VALID,0.105969,VALID,24.7055,VALID,69,VALID,0,
2009-06-09, 01:27:04,VALID,1011.15,VALID,0,VALID,89.9763,VALID,0,VALID,24.7055,VALID,69,VALID,0,
2009-06-09, 01:28:04,VALID,1011.14,VALID,0,VALID,89.9915,VALID,0,VALID,24.686,VALID,69,VALID,0,
2009-06-09, 01:29:04,VALID,1011.11,VALID,0,VALID,90.0449,VALID,0,VALID,24.686,VALID,69,VALID,0,
2009-06-09, 01:30:04,VALID,1011.07,VALID,0,VALID,90.0602,VALID,0,VALID,24.6666,VALID,69,VALID,0,
2009-06-09, 01:31:04,VALID,1010.98,VALID,0,VALID,90.083,VALID,0,VALID,24.686,VALID,69,VALID,0,
2009-06-09, 01:32:04,VALID,1010.99,VALID,0,VALID,90.1212,VALID,0,VALID,24.6684,VALID,69,VALID,0,
2009-06-09, 01:33:04,VALID,1010.99,VALID,0,VALID,90.1288,VALID,0,VALID,24.6471,VALID,69,VALID,0,
2009-06-09, 01:34:04,VALID,1010.97,VALID,0,VALID,90.144,VALID,0.105969,VALID,24.6471,VALID,69,VALID,0,
2009-06-09, 01:35:04,VALID,1010.97,VALID,0,VALID,90.1669,VALID,0.105969,VALID,24.6276,VALID,69,VALID,0,
2009-06-09, 01:36:04,VALID,1010.98,VALID,0,VALID,90.205,VALID,0,VALID,24.6081,VALID,69,VALID,0,
2009-06-09, 01:37:04,VALID,1010.98,VALID,0,VALID,90.1745,VALID,0,VALID,24.5886,VALID,69,VALID,0,
2009-06-09, 01:38:04,VALID,1010.92,VALID,0,VALID,90.1822,VALID,0,VALID,24.5691,VALID,69,VALID,0,
2009-06-09, 01:39:04,VALID,1010.89,VALID,0,VALID,90.1822,VALID,0,VALID,24.5496,VALID,69,VALID,0,
2009-06-09, 01:40:04,VALID,1010.86,VALID,0,VALID,90.205,VALID,0,VALID,24.5301,VALID,69,VALID,0,
2009-06-09, 01:41:04,VALID,1010.82,VALID,0,VALID,90.1898,VALID,0.105969,VALID,24.5106,VALID,76,VALID,0,
2009-06-09, 01:42:04,VALID,1010.85,VALID,0,VALID,90.205,VALID,0.105969,VALID,24.4522,VALID,139,VALID,0,
2009-06-09, 01:43:04,VALID,1010.82,VALID,0,VALID,90.2584,VALID,0,VALID,24.5106,VALID,146,VALID,0.681641,
2009-06-09, 01:44:04,VALID,1010.82,VALID,0,VALID,90.3423,VALID,0.105969,VALID,24.5301,VALID,148,VALID,0.594531,
2009-06-09, 01:45:04,VALID,1010.85,VALID,0,VALID,90.4033,VALID,0.105969,VALID,24.5106,VALID,148,VALID,0.332031,
2009-06-09, 01:46:04,VALID,1010.83,VALID,0,VALID,90.4338,VALID,0.105969,VALID,24.4911,VALID,148,VALID,0.255859,
2009-06-09, 01:47:04,VALID,1010.84,VALID,0,VALID,90.4796,VALID,0,VALID,24.5106,VALID,148,VALID,0.342969,
2009-06-09, 01:48:04,VALID,1010.83,VALID,0,VALID,90.5101,VALID,0,VALID,24.5301,VALID,148,VALID,0.352344,
2009-06-09, 01:49:04,VALID,1010.81,VALID,0,VALID,90.5406,VALID,0,VALID,24.5301,VALID,148,VALID,0.322656,
2009-06-09, 01:50:04,VALID,1010.8,VALID,0,VALID,90.5863,VALID,0,VALID,24.5301,VALID,148,VALID,0.307031,
2009-06-09, 01:51:04,VALID,1010.78,VALID,0,VALID,90.6016,VALID,0,VALID,24.5301,VALID,148,VALID,0.189453,
2009-06-09, 01:52:04,VALID,1010.79,VALID,0,VALID,90.6245,VALID,0,VALID,24.532,VALID,148,VALID,0,
2009-06-09, 01:53:04,VALID,1010.8,VALID,0,VALID,90.6397,VALID,0.105969,VALID,24.5496,VALID,148,VALID,0,
2009-06-09, 01:54:04,VALID,1010.78,VALID,0,VALID,90.6397,VALID,0,VALID,24.5496,VALID,148,VALID,0,
2009-06-09, 01:55:04,VALID,1010.77,VALID,0,VALID,90.6702,VALID,0,VALID,24.5496,VALID,148,VALID,0,
2009-06-09, 01:56:04,VALID,1010.83,VALID,0,VALID,90.6626,VALID,0.105969,VALID,24.571,VALID,148,VALID,0,
2009-06-09, 01:57:04,VALID,1010.78,VALID,0,VALID,90.7007,VALID,0.105969,VALID,24.5691,VALID,148,VALID,0,
2009-06-09, 01:58:04,VALID,1010.75,VALID,0,VALID,90.7007,VALID,0,VALID,24.5691,VALID,148,VALID,0,
2009-06-09, 01:59:04,VALID,1010.77,VALID,0,VALID,90.7083,VALID,0,VALID,24.5691,VALID,148,VALID,0,
2009-06-09, 02:00:04,VALID,1010.77,VALID,0,VALID,90.7312,VALID,0.105969,VALID,24.5478,VALID,148,VALID,0,
2009-06-09, 02:01:04,VALID,1010.79,VALID,0,VALID,90.7388,VALID,0,VALID,24.5691,VALID,148,VALID,0,
2009-06-09, 02:02:04,VALID,1010.75,VALID,0,VALID,90.7693,VALID,0,VALID,24.5691,VALID,148,VALID,0,
2009-06-09, 02:03:04,VALID,1010.71,VALID,0,VALID,90.7617,VALID,0,VALID,24.5905,VALID,148,VALID,0,
2009-06-09, 02:04:04,VALID,1010.69,VALID,0,VALID,90.7846,VALID,0,VALID,24.5886,VALID,148,VALID,0,
2009-06-09, 02:05:04,VALID,1010.67,VALID,0,VALID,90.7693,VALID,0,VALID,24.5691,VALID,133,VALID,0,
2009-06-09, 02:06:04,VALID,1010.68,VALID,0,VALID,90.7922,VALID,0,VALID,24.6081,VALID,117,VALID,0,
2009-06-09, 02:07:04,VALID,1010.7,VALID,0,VALID,90.7846,VALID,0.105969,VALID,24.6099,VALID,117,VALID,0,
2009-06-09, 02:08:04,VALID,1010.68,VALID,0,VALID,90.7693,VALID,0,VALID,24.5886,VALID,117,VALID,0,
2009-06-09, 02:09:04,VALID,1010.71,VALID,0,VALID,90.777,VALID,0,VALID,24.5691,VALID,128,VALID,0,
2009-06-09, 02:10:04,VALID,1010.7,VALID,0,VALID,90.7465,VALID,0,VALID,24.5691,VALID,125,VALID,0,
2009-06-09, 02:11:04,VALID,1010.7,VALID,0,VALID,90.7388,VALID,0,VALID,24.5691,VALID,127,VALID,0.353516,
2009-06-09, 02:12:04,VALID,1010.68,VALID,0,VALID,90.7465,VALID,0,VALID,24.5886,VALID,120,VALID,1.07383,
2009-06-09, 02:13:04,VALID,1010.69,VALID,0,VALID,90.7541,VALID,0,VALID,24.6276,VALID,140,VALID,1.10273,
2009-06-09, 02:14:04,VALID,1010.67,VALID,0,VALID,90.7465,VALID,0,VALID,24.6276,VALID,144,VALID,0.863672,
2009-06-09, 02:15:04,VALID,1010.69,VALID,0,VALID,90.716,VALID,0.105969,VALID,24.6276,VALID,137,VALID,0.360547,
2009-06-09, 02:16:04,VALID,1010.69,VALID,0,VALID,90.7083,VALID,0,VALID,24.6081,VALID,140,VALID,0.789844,
2009-06-09, 02:17:04,VALID,1010.71,VALID,0,VALID,90.6778,VALID,0.105969,VALID,24.6276,VALID,163,VALID,0.275391,
2009-06-09, 02:18:04,VALID,1010.71,VALID,0,VALID,90.6626,VALID,0,VALID,24.6081,VALID,163,VALID,0.441406,
2009-06-09, 02:19:04,VALID,1010.66,VALID,0,VALID,90.6321,VALID,0,VALID,24.6081,VALID,138,VALID,0.631641,
2009-06-09, 02:20:04,VALID,1010.65,VALID,0,VALID,90.6397,VALID,0,VALID,24.6081,VALID,154,VALID,0.391016,
2009-06-09, 02:21:04,VALID,1010.63,VALID,0,VALID,90.6168,VALID,0,VALID,24.6081,VALID,170,VALID,0.555078,
2009-06-09, 02:22:04,VALID,1010.64,VALID,0,VALID,90.6321,VALID,0,VALID,24.6276,VALID,166,VALID,0.634375,
2009-06-09, 02:23:04,VALID,1010.59,VALID,0,VALID,90.5863,VALID,0.105969,VALID,24.6276,VALID,167,VALID,0.594141,
2009-06-09, 02:24:04,VALID,1010.61,VALID,0,VALID,90.5634,VALID,0.105969,VALID,24.6081,VALID,164,VALID,0.616406,
2009-06-09, 02:25:04,VALID,1010.57,VALID,0,VALID,90.5406,VALID,0.105969,VALID,24.6081,VALID,151,VALID,0.524609,
2009-06-09, 02:26:04,VALID,1010.58,VALID,0,VALID,90.5177,VALID,0.105969,VALID,24.6081,VALID,151,VALID,0.566016,
2009-06-09, 02:27:04,VALID,1010.57,VALID,0,VALID,90.5101,VALID,0.105969,VALID,24.6081,VALID,153,VALID,0.461719,
2009-06-09, 02:28:04,VALID,1010.52,VALID,0,VALID,90.4872,VALID,0,VALID,24.6294,VALID,153,VALID,0.296094,
2009-06-09, 02:29:04,VALID,1010.48,VALID,0,VALID,90.4643,VALID,0.105969,VALID,24.6276,VALID,153,VALID,0.255078,
2009-06-09, 02:30:04,VALID,1010.48,VALID,0,VALID,90.4567,VALID,0.105969,VALID,24.6081,VALID,153,VALID,0,
2009-06-09, 02:31:04,VALID,1010.48,VALID,0,VALID,90.4567,VALID,0.105969,VALID,24.6081,VALID,153,VALID,0.682813,
2009-06-09, 02:32:04,VALID,1010.48,VALID,0,VALID,90.4567,VALID,0,VALID,24.6081,VALID,164,VALID,0.535547,
2009-06-09, 02:33:04,VALID,1010.45,VALID,0,VALID,90.4567,VALID,0.105969,VALID,24.6276,VALID,163,VALID,0.261719,
2009-06-09, 02:34:04,VALID,1010.46,VALID,0,VALID,90.4414,VALID,0,VALID,24.6276,VALID,164,VALID,0,
2009-06-09, 02:35:04,VALID,1010.47,VALID,0,VALID,90.4643,VALID,0.105969,VALID,24.6276,VALID,164,VALID,0,
2009-06-09, 02:36:04,VALID,1010.5,VALID,0,VALID,90.4262,VALID,0.105969,VALID,24.6276,VALID,150,VALID,0.151562,
2009-06-09, 02:37:04,VALID,1010.52,VALID,0,VALID,90.4338,VALID,0.105969,VALID,24.6471,VALID,107,VALID,0.724609,
2009-06-09, 02:38:04,VALID,1010.5,VALID,0,VALID,90.4338,VALID,0.105969,VALID,24.6666,VALID,106,VALID,0.423438,
2009-06-09, 02:39:04,VALID,1010.49,VALID,0,VALID,90.4186,VALID,0.105969,VALID,24.686,VALID,92,VALID,0.853516,
2009-06-09, 02:40:04,VALID,1010.51,VALID,0,VALID,90.4338,VALID,0.105969,VALID,24.7055,VALID,97,VALID,0.527344,
2009-06-09, 02:41:04,VALID,1010.5,VALID,0,VALID,90.3804,VALID,0.105969,VALID,24.7037,VALID,97,VALID,0.381641,
2009-06-09, 02:42:04,VALID,1010.47,VALID,0,VALID,90.3423,VALID,0,VALID,24.7055,VALID,123,VALID,0.517578,
2009-06-09, 02:43:04,VALID,1010.44,VALID,0,VALID,90.327,VALID,0,VALID,24.7055,VALID,135,VALID,0.474219,
2009-06-09, 02:44:04,VALID,1010.41,VALID,0,VALID,90.2889,VALID,0,VALID,24.7445,VALID,114,VALID,0.657031,
2009-06-09, 02:45:04,VALID,1010.41,VALID,0,VALID,90.266,VALID,0.105969,VALID,24.764,VALID,98,VALID,0.385938,
2009-06-09, 02:46:04,VALID,1010.43,VALID,0,VALID,90.2432,VALID,0.105969,VALID,24.7445,VALID,101,VALID,0.694531,
2009-06-09, 02:47:04,VALID,1010.44,VALID,0,VALID,90.1898,VALID,0.105969,VALID,24.764,VALID,92,VALID,1.15078,
2009-06-09, 02:48:04,VALID,1010.43,VALID,0,VALID,90.144,VALID,0.105969,VALID,24.764,VALID,103,VALID,1.15586,
2009-06-09, 02:49:04,VALID,1010.43,VALID,0,VALID,90.1135,VALID,0,VALID,24.764,VALID,104,VALID,0.801172,
2009-06-09, 02:50:04,VALID,1010.4,VALID,0,VALID,90.0678,VALID,0.105969,VALID,24.764,VALID,104,VALID,0.620313,
2009-06-09, 02:51:04,VALID,1010.39,VALID,0,VALID,90.0373,VALID,0.105969,VALID,24.764,VALID,101,VALID,0.717578,
2009-06-09, 02:52:04,VALID,1010.39,VALID,0,VALID,90.022,VALID,0.105969,VALID,24.764,VALID,103,VALID,0.178906,
2009-06-09, 02:53:04,VALID,1010.38,VALID,0,VALID,89.9915,VALID,0,VALID,24.7445,VALID,95,VALID,0.328516,
2009-06-09, 02:54:04,VALID,1010.38,VALID,0,VALID,89.9839,VALID,0.105969,VALID,24.7445,VALID,83,VALID,0.409375,
2009-06-09, 02:55:04,VALID,1010.37,VALID,0,VALID,89.9763,VALID,0,VALID,24.7445,VALID,72,VALID,0.311719,
2009-06-09, 02:56:04,VALID,1010.37,VALID,0,VALID,89.961,VALID,0,VALID,24.725,VALID,72,VALID,0.09375,
2009-06-09, 02:57:04,VALID,1010.36,VALID,0,VALID,89.9686,VALID,0.105969,VALID,24.7055,VALID,48,VALID,0.295703,
2009-06-09, 02:58:04,VALID,1010.37,VALID,0,VALID,89.9763,VALID,0,VALID,24.7055,VALID,47,VALID,0.117578,
2009-06-09, 02:59:04,VALID,1010.35,VALID,0,VALID,89.9686,VALID,0,VALID,24.6666,VALID,42,VALID,0.385938,
2009-06-09, 03:00:04,VALID,1010.34,VALID,0,VALID,89.9991,VALID,0.105969,VALID,24.6666,VALID,45,VALID,0.286719,
2009-06-09, 03:01:04,VALID,1010.35,VALID,0,VALID,89.9915,VALID,0.105969,VALID,24.6471,VALID,65,VALID,0.483594,
2009-06-09, 03:02:04,VALID,1010.33,VALID,0,VALID,90.0296,VALID,0,VALID,24.6081,VALID,80,VALID,0.871484,
2009-06-09, 03:03:04,VALID,1010.32,VALID,0,VALID,90.0678,VALID,0,VALID,24.5886,VALID,96,VALID,0.834375,
2009-06-09, 03:04:04,VALID,1010.33,VALID,0,VALID,90.1059,VALID,0,VALID,24.5496,VALID,88,VALID,1.16914,
2009-06-09, 03:05:04,VALID,1010.34,VALID,0,VALID,90.083,VALID,0,VALID,24.5106,VALID,85,VALID,1.49297,
2009-06-09, 03:06:04,VALID,1010.32,VALID,0,VALID,90.1059,VALID,0,VALID,24.5125,VALID,70,VALID,0.989062,
2009-06-09, 03:07:04,VALID,1010.32,VALID,0,VALID,90.1517,VALID,0.105969,VALID,24.4522,VALID,98,VALID,1.11133,
2009-06-09, 03:08:04,VALID,1010.32,VALID,0,VALID,90.1822,VALID,0.105969,VALID,24.4327,VALID,58,VALID,0.917578,
2009-06-09, 03:09:04,VALID,1010.36,VALID,0,VALID,90.2203,VALID,0.105969,VALID,24.4132,VALID,84,VALID,0.894922,
2009-06-09, 03:10:04,VALID,1010.36,VALID,0,VALID,90.266,VALID,0,VALID,24.4132,VALID,91,VALID,1.175,
2009-06-09, 03:11:04,VALID,1010.34,VALID,0,VALID,90.3042,VALID,0.105969,VALID,24.4132,VALID,75,VALID,1.2168,
2009-06-09, 03:12:04,VALID,1010.36,VALID,0,VALID,90.327,VALID,0.105969,VALID,24.3919,VALID,79,VALID,0.686719,
2009-06-09, 03:13:04,VALID,1010.33,VALID,0,VALID,90.3423,VALID,0,VALID,24.3742,VALID,111,VALID,1.30938,
2009-06-09, 03:14:04,VALID,1010.34,VALID,0,VALID,90.3652,VALID,0,VALID,24.3742,VALID,95,VALID,1.03359,
2009-06-09, 03:15:04,VALID,1010.3,VALID,0,VALID,90.3652,VALID,0.105969,VALID,24.3742,VALID,84,VALID,0.848828,
2009-06-09, 03:16:04,VALID,1010.3,VALID,0,VALID,90.3728,VALID,0.105969,VALID,24.3547,VALID,110,VALID,1.14219,
2009-06-09, 03:17:04,VALID,1010.28,VALID,0,VALID,90.3652,VALID,0,VALID,24.3547,VALID,93,VALID,1.19453,
2009-06-09, 03:18:04,VALID,1010.28,VALID,0,VALID,90.3804,VALID,0.105969,VALID,24.3547,VALID,114,VALID,0.885938,
2009-06-09, 03:19:04,VALID,1010.29,VALID,0,VALID,90.3881,VALID,0.105969,VALID,24.3547,VALID,103,VALID,0.8875,
2009-06-09, 03:20:04,VALID,1010.24,VALID,0,VALID,90.3881,VALID,0,VALID,24.3566,VALID,94,VALID,0.796484,
2009-06-09, 03:21:04,VALID,1010.25,VALID,0,VALID,90.3881,VALID,0.105969,VALID,24.3352,VALID,115,VALID,0.275781,
2009-06-09, 03:22:04,VALID,1010.26,VALID,0,VALID,90.3881,VALID,0.105969,VALID,24.3352,VALID,86,VALID,0.793359,
2009-06-09, 03:23:04,VALID,1010.28,VALID,0,VALID,90.3881,VALID,0,VALID,24.3352,VALID,77,VALID,0.885156,
2009-06-09, 03:24:04,VALID,1010.24,VALID,0,VALID,90.3957,VALID,0.105969,VALID,24.3139,VALID,83,VALID,1.02109,
2009-06-09, 03:25:04,VALID,1010.25,VALID,0,VALID,90.3804,VALID,0,VALID,24.3158,VALID,74,VALID,1.13164,
2009-06-09, 03:26:04,VALID,1010.25,VALID,0,VALID,90.3804,VALID,0,VALID,24.2963,VALID,77,VALID,1.34805,
2009-06-09, 03:27:04,VALID,1010.26,VALID,0,VALID,90.3728,VALID,0,VALID,24.2768,VALID,89,VALID,0.910156,
2009-06-09, 03:28:04,VALID,1010.24,VALID,0,VALID,90.4033,VALID,0.105969,VALID,24.2573,VALID,88,VALID,0.749609,
2009-06-09, 03:29:04,VALID,1010.24,VALID,0,VALID,90.4109,VALID,0.105969,VALID,24.2378,VALID,82,VALID,1.1207,
2009-06-09, 03:30:04,VALID,1010.21,VALID,0,VALID,90.4414,VALID,0,VALID,24.2378,VALID,83,VALID,0.523438,
2009-06-09, 03:31:04,VALID,1010.2,VALID,0,VALID,90.4643,VALID,0.105969,VALID,24.2378,VALID,60,VALID,0.705469,
2009-06-09, 03:32:04,VALID,1010.21,VALID,0,VALID,90.4872,VALID,0.105969,VALID,24.2183,VALID,80,VALID,0.764063,
2009-06-09, 03:33:04,VALID,1010.23,VALID,0,VALID,90.5177,VALID,0.105969,VALID,24.2183,VALID,91,VALID,1.01016,
2009-06-09, 03:34:04,VALID,1010.25,VALID,0,VALID,90.5634,VALID,0.105969,VALID,24.2183,VALID,74,VALID,0.963672,
2009-06-09, 03:35:04,VALID,1010.27,VALID,0,VALID,90.5558,VALID,0.105969,VALID,24.1988,VALID,73,VALID,1.05078,
2009-06-09, 03:36:04,VALID,1010.23,VALID,0,VALID,90.5787,VALID,0,VALID,24.2202,VALID,69,VALID,0.81875,
2009-06-09, 03:37:04,VALID,1010.22,VALID,0,VALID,90.6016,VALID,0,VALID,24.1793,VALID,72,VALID,0.892187,
2009-06-09, 03:38:04,VALID,1010.22,VALID,0,VALID,90.6397,VALID,0.105969,VALID,24.1988,VALID,72,VALID,0.892578,
2009-06-09, 03:39:04,VALID,1010.25,VALID,0,VALID,90.6473,VALID,0.105969,VALID,24.1793,VALID,77,VALID,0.458984,
2009-06-09, 03:40:04,VALID,1010.25,VALID,0,VALID,90.6702,VALID,0,VALID,24.1793,VALID,78,VALID,0.916797,
2009-06-09, 03:41:04,VALID,1010.23,VALID,0,VALID,90.6778,VALID,0.105969,VALID,24.1599,VALID,83,VALID,0.607813,
2009-06-09, 03:42:04,VALID,1010.25,VALID,0,VALID,90.6931,VALID,0,VALID,24.1599,VALID,77,VALID,0.769141,
2009-06-09, 03:43:04,VALID,1010.26,VALID,0,VALID,90.7007,VALID,0.105969,VALID,24.1599,VALID,75,VALID,0.351563,
2009-06-09, 03:44:04,VALID,1010.27,VALID,0,VALID,90.7312,VALID,0.105969,VALID,24.1599,VALID,77,VALID,0.543359,
2009-06-09, 03:45:04,VALID,1010.26,VALID,0,VALID,90.7388,VALID,0.105969,VALID,24.1404,VALID,68,VALID,0.608594,